Boulder Muni, Boulder, CO, CO

11:47 PM MDT on March 26, 2017 (GMT -0600)
Boulder Muni, Boulder, CO

Weather History for KBDU - August, 2013

Change the Weather History Date:

Sunday, August 18, 2013

  Actual Average Record
Temperature  
Mean Temperature 76 °F -  
Max Temperature 91 °F - 91 °F (2013)
Min Temperature 60 °F - 51 °F (2015)
Degree Days  
Heating Degree Days 0    
Month to date heating degree days  
Cooling Degree Days 10    
Month to date cooling degree days  
Growing Degree Days 26 (Base 50)    
Moisture  
Dew Point 43 °F    
Average Humidity 36    
Maximum Humidity 68    
Minimum Humidity 12    
Precipitation  
Precipitation 0.00 in - 0.05 in (2015)
Sea Level Pressure  
Sea Level Pressure 30.13 in    
Wind  
Wind Speed 4 mph (SW)    
Max Wind Speed 18 mph    
Max Gust Speed 24 mph    
Visibility 10 miles    
Events      
T = Trace of Precipitation, MM = Missing Value Source: NWS Daily Summary

Daily Weather History Graph

Daily Weather History Graph

Search for Another Location

Airport or City:

Trip Planner

Search our weather history database for the weather conditions in past years. The results will help you decide how hot, cold, wet, or windy it might be!

Date:

Astronomy

Aug. 18, 2013 Rise Set
Actual Time 6:15 AM MDT 7:53 PM MDT
Civil Twilight 5:46 AM MDT 8:21 PM MDT
Nautical Twilight 5:12 AM MDT 8:56 PM MDT
Astronomical Twilight 4:35 AM MDT 9:33 PM MDT
Moon 6:01 PM MDT (8/18) 3:27 AM MDT (8/18)
Length of Visible Light 14h 34m
Length of Day
13h 37m
Waxing Gibbous, 92% of the Moon is Illuminated
Aug 18
Waxing Gibbous
Aug 20
Full
Aug 28
Last Quarter
Sep 5
New
Sep 12
First Quarter

Hourly Weather History & Observations

Time (MDT) Temp. Heat Index Dew Point Humidity Pressure Visibility Wind Dir Wind Speed Gust Speed Precip Events Conditions
12:17 AM 71.6 °F - 32.0 °F 23% 30.11 in 10.0 mi ESE 3.5 mph - N/A   Clear
12:37 AM 64.4 °F - 37.4 °F 37% 30.11 in 10.0 mi NNE 3.5 mph - N/A   Clear
12:57 AM 69.8 °F - 39.2 °F 33% 30.11 in 10.0 mi East 4.6 mph - N/A   Clear
1:17 AM 69.8 °F - 39.2 °F 33% 30.11 in 10.0 mi ENE 4.6 mph - N/A   Clear
1:37 AM 68.0 °F - 42.8 °F 40% 30.11 in 10.0 mi Calm Calm - N/A   Clear
1:57 AM 68.0 °F - 37.4 °F 33% 30.11 in 10.0 mi South 3.5 mph - N/A   Clear
2:17 AM 66.2 °F - 37.4 °F 35% 30.11 in 10.0 mi Calm Calm - N/A   Clear
2:37 AM 64.4 °F - 39.2 °F 40% 30.11 in 10.0 mi SW 3.5 mph - N/A   Clear
2:57 AM 62.6 °F - 41.0 °F 45% 30.11 in 10.0 mi South 3.5 mph - N/A   Clear
3:17 AM 62.6 °F - 42.8 °F 48% 30.10 in 10.0 mi SSW 3.5 mph - N/A   Clear
3:37 AM 62.6 °F - 42.8 °F 48% 30.10 in 10.0 mi South 3.5 mph - N/A   Clear
3:57 AM 62.6 °F - 42.8 °F 48% 30.10 in 10.0 mi Calm Calm - N/A   Clear
4:17 AM 62.6 °F - 44.6 °F 52% 30.11 in 10.0 mi Calm Calm - N/A   Clear
4:37 AM 62.6 °F - 44.6 °F 52% 30.11 in 10.0 mi SW 3.5 mph - N/A   Clear
4:57 AM 60.8 °F - 42.8 °F 52% 30.11 in 10.0 mi SSW 4.6 mph - N/A   Clear
5:17 AM 60.8 °F - 42.8 °F 52% 30.12 in 10.0 mi SSW 3.5 mph - N/A   Clear
5:37 AM 60.8 °F - 46.4 °F 59% 30.11 in 10.0 mi SSW 6.9 mph - N/A   Clear
5:57 AM 60.8 °F - 46.4 °F 59% 30.12 in 10.0 mi SSW 3.5 mph - N/A   Clear
6:17 AM 60.8 °F - 48.2 °F 63% 30.12 in 10.0 mi South 3.5 mph - N/A   Clear
6:37 AM 60.8 °F - 50.0 °F 68% 30.13 in 10.0 mi Calm Calm - N/A   Clear
6:57 AM 60.8 °F - 50.0 °F 68% 30.13 in 10.0 mi Calm Calm - N/A   Clear
7:17 AM 62.6 °F - 50.0 °F 63% 30.13 in 10.0 mi Calm Calm - N/A   Clear
7:37 AM 64.4 °F - 50.0 °F 59% 30.13 in 10.0 mi Calm Calm - N/A   Clear
7:57 AM 64.4 °F - 51.8 °F 64% 30.14 in 10.0 mi Calm Calm - N/A   Clear
8:17 AM 68.0 °F - 53.6 °F 60% 30.14 in 10.0 mi Calm Calm - N/A   Clear
8:37 AM 69.8 °F - 53.6 °F 56% 30.14 in 10.0 mi Calm Calm - N/A   Clear
8:57 AM 69.8 °F - 53.6 °F 56% 30.14 in 10.0 mi Calm Calm - N/A   Clear
9:17 AM 71.6 °F - 55.4 °F 57% 30.14 in 10.0 mi Calm Calm - N/A   Clear
9:37 AM 71.6 °F - 53.6 °F 53% 30.14 in 10.0 mi Calm Calm - N/A   Clear
9:57 AM 73.4 °F - 53.6 °F 50% 30.14 in 10.0 mi Calm Calm - N/A   Clear
10:17 AM 77.0 °F - 53.6 °F 44% 30.14 in 10.0 mi Calm Calm - N/A   Clear
10:37 AM 77.0 °F - 53.6 °F 44% 30.14 in 10.0 mi Calm Calm - N/A   Clear
10:57 AM 80.6 °F 80.3 °F 53.6 °F 39% 30.14 in 10.0 mi Calm Calm - N/A   Clear
11:17 AM 82.4 °F - 51.8 °F 35% 30.14 in 10.0 mi Calm Calm - N/A   Clear
11:37 AM 86.0 °F - 51.8 °F 31% 30.13 in 10.0 mi Calm Calm - N/A   Clear
11:57 AM 86.0 °F - 50.0 °F 29% 30.12 in 10.0 mi NNE 4.6 mph - N/A   Clear
12:17 PM 86.0 °F - 48.2 °F 27% 30.12 in 10.0 mi NNW 3.5 mph - N/A   Clear
12:37 PM 82.4 °F - 50.0 °F 32% 30.11 in 10.0 mi North 9.2 mph - N/A   Scattered Clouds
12:57 PM 89.6 °F - 50.0 °F 26% 30.11 in 10.0 mi WNW 9.2 mph - N/A   Scattered Clouds
1:17 PM 86.0 °F - 42.8 °F 22% 30.12 in 10.0 mi North 9.2 mph 18.4 mph N/A   Scattered Clouds
1:37 PM 82.4 °F - 41.0 °F 23% 30.12 in 10.0 mi West 5.8 mph - N/A   Mostly Cloudy
1:57 PM 86.0 °F - 35.6 °F 17% 30.13 in 10.0 mi SSE 18.4 mph 24.2 mph N/A   Mostly Cloudy
2:17 PM 86.0 °F - 33.8 °F 15% 30.13 in 10.0 mi SSE 6.9 mph - N/A   Scattered Clouds
2:37 PM 86.0 °F - 35.6 °F 17% 30.13 in 10.0 mi SSW 5.8 mph - N/A   Scattered Clouds
2:57 PM 87.8 °F - 32.0 °F 14% 30.11 in 10.0 mi WNW 5.8 mph 24.2 mph N/A   Scattered Clouds
3:17 PM 91.4 °F - 32.0 °F 12% 30.11 in 10.0 mi NNW 6.9 mph - N/A   Clear
3:37 PM 89.6 °F - 33.8 °F 14% 30.11 in 10.0 mi NNW 4.6 mph - N/A   Clear
3:57 PM 89.6 °F - 33.8 °F 14% 30.11 in 10.0 mi North 4.6 mph - N/A   Clear
4:17 PM 86.0 °F - 37.4 °F 18% 30.11 in 10.0 mi North 3.5 mph - N/A   Clear
4:37 PM 82.4 °F - 41.0 °F 23% 30.12 in 10.0 mi NNE 10.4 mph 19.6 mph N/A   Clear
4:57 PM 82.4 °F - 37.4 °F 20% 30.13 in 10.0 mi North 11.5 mph 19.6 mph N/A   Clear
5:17 PM 80.6 °F - 37.4 °F 21% 30.15 in 10.0 mi North 9.2 mph 16.1 mph N/A   Mostly Cloudy
5:37 PM 80.6 °F - 37.4 °F 21% 30.17 in 10.0 mi North 9.2 mph - N/A   Overcast
5:57 PM 80.6 °F - 35.6 °F 20% 30.17 in 10.0 mi ENE 5.8 mph - N/A   Overcast
6:17 PM 80.6 °F - 37.4 °F 21% 30.17 in 10.0 mi NW 4.6 mph - N/A   Mostly Cloudy
6:37 PM 78.8 °F - 39.2 °F 24% 30.15 in 10.0 mi NNE 4.6 mph - N/A   Clear
6:57 PM 80.6 °F - 37.4 °F 21% 30.15 in 10.0 mi WSW 5.8 mph - N/A   Clear
7:17 PM 80.6 °F - 37.4 °F 21% 30.14 in 10.0 mi SW 8.1 mph - N/A   Clear
7:37 PM 78.8 °F - 39.2 °F 24% 30.15 in 10.0 mi SW 8.1 mph - N/A   Clear
7:57 PM 77.0 °F - 41.0 °F 28% 30.15 in 10.0 mi SSW 4.6 mph - N/A   Clear
8:17 PM 78.8 °F - 39.2 °F 24% 30.15 in 10.0 mi SW 9.2 mph - N/A   Scattered Clouds
8:37 PM 77.0 °F - 39.2 °F 26% 30.15 in 10.0 mi SSW 9.2 mph - N/A   Clear
8:57 PM 77.0 °F - 41.0 °F 28% 30.16 in 10.0 mi SW 8.1 mph - N/A   Clear
9:17 PM 77.0 °F - 39.2 °F 26% 30.18 in 10.0 mi SW 4.6 mph - N/A   Clear
9:37 PM 75.2 °F - 41.0 °F 29% 30.18 in 10.0 mi South 6.9 mph - N/A   Scattered Clouds
9:57 PM 75.2 °F - 42.8 °F 31% 30.20 in 10.0 mi WSW 3.5 mph - N/A   Scattered Clouds
10:17 PM 73.4 °F - 41.0 °F 31% 30.18 in 10.0 mi SE 3.5 mph - N/A   Scattered Clouds
10:37 PM 71.6 °F - 41.0 °F 33% 30.18 in 10.0 mi SW 8.1 mph - N/A   Clear
10:57 PM 73.4 °F - 39.2 °F 29% 30.18 in 10.0 mi SW 4.6 mph - N/A   Clear
11:17 PM 69.8 °F - 41.0 °F 35% 30.18 in 10.0 mi ESE 6.9 mph - N/A   Clear
11:37 PM 73.4 °F - 39.2 °F 29% 30.17 in 10.0 mi South 5.8 mph - N/A   Clear
11:57 PM 71.6 °F - 41.0 °F 33% 30.16 in 10.0 mi South 3.5 mph - N/A   Clear